Powrót do katalogu

KUIPER-00023

AktywnyŁącznośćLEO
NORAD 63737·PAYLOAD·🇺🇸 United States

Wystrzelony Apr 28, 2025 z Cape Canaveral Space Force Station

Loading…

Następne Przeloty (najbliższe 24 godziny)

TLE

ŚwieżeSource: CelesTrak SupGP

Epoka: Sep 15, 2026, 05:21 UTC

1 63737C 25088P   26258.22303241  .00001343  00000+0  17574-3 0  2584
2 63737  51.9014 347.4364 0000522  77.9150  13.6939 14.79930426    14

Śledź KUIPER-00023 w czasie rzeczywistym z AllMySat

Download on the App Store